DAL674 KLAX-KSEA

Flight info

Callsign DAL674
Flight time 2h 2m
Altitude 40000
Route LADYJ4 CSTRO SHIMR/N0491F430 LKV HAWKZ8
Aircraft A359/H-SDE2E3GHIJ3J4J5LM1ORWXY/LB1D1

Departure

Time 2026-04-25 00:51
Airport Los Angeles International Airport (KLAX)

Arrival

Time 2026-04-25 02:53
Airport Seattle–Tacoma International Airport (KSEA)
Time Latitude Longitude Altitude Speed Heading
2026-04-25 00:03 33.94759 -118.40356 99 ft 0 kts 203°
2026-04-25 00:39 33.94764 -118.40354 101 ft 2 kts 203°
2026-04-25 00:39 33.94787 -118.40346 99 ft 4 kts 169°
2026-04-25 00:39 33.94804 -118.40358 100 ft 4 kts 95°
2026-04-25 00:39 33.94802 -118.40390 96 ft 4 kts 82°
2026-04-25 00:40 33.94800 -118.40407 97 ft 0 kts 82°
2026-04-25 00:45 33.94802 -118.40383 96 ft 6 kts 85°
2026-04-25 00:46 33.94808 -118.40318 102 ft 9 kts 69°
2026-04-25 00:46 33.94863 -118.40296 102 ft 9 kts 356°
2026-04-25 00:46 33.94903 -118.40200 103 ft 9 kts 82°
2026-04-25 00:47 33.94912 -118.40118 101 ft 12 kts 83°
2026-04-25 00:47 33.94922 -118.40018 101 ft 11 kts 83°
2026-04-25 00:47 33.94932 -118.39955 99 ft 7 kts 69°
2026-04-25 00:47 33.94939 -118.39940 103 ft 0 kts 57°
2026-04-25 00:48 33.94942 -118.39935 102 ft 5 kts 52°
2026-04-25 00:48 33.95006 -118.39914 101 ft 12 kts 354°
2026-04-25 00:48 33.95041 -118.39936 101 ft 3 kts 289°
2026-04-25 00:49 33.95040 -118.39952 103 ft 0 kts 268°
2026-04-25 00:50 33.95037 -118.40018 101 ft 33 kts 264°
2026-04-25 00:50 33.94986 -118.40620 105 ft 109 kts 261°
2026-04-25 00:50 33.94856 -118.41785 171 ft 164 kts 262°
2026-04-25 00:51 33.94697 -118.43154 1011 ft 170 kts 261°
2026-04-25 00:51 33.94529 -118.44622 1815 ft 189 kts 261°
2026-04-25 00:51 33.94367 -118.46303 2356 ft 214 kts 262°
2026-04-25 00:51 33.94234 -118.48223 2764 ft 244 kts 267°
2026-04-25 00:52 33.94190 -118.50331 3469 ft 257 kts 268°
2026-04-25 00:52 33.94118 -118.52501 4400 ft 259 kts 265°
2026-04-25 00:52 33.93955 -118.54664 5373 ft 261 kts 263°
2026-04-25 00:52 33.93779 -118.56814 6433 ft 260 kts 264°
2026-04-25 00:53 33.93600 -118.59003 7303 ft 262 kts 264°
2026-04-25 00:53 33.93575 -118.61233 8205 ft 269 kts 277°
2026-04-25 00:53 33.94191 -118.63333 9273 ft 273 kts 300°
2026-04-25 00:53 33.95523 -118.64989 10261 ft 281 kts 321°
2026-04-25 00:54 33.97219 -118.66325 10832 ft 302 kts 325°
2026-04-25 00:54 33.99214 -118.67434 11199 ft 331 kts 341°
2026-04-25 00:54 34.01597 -118.67699 11673 ft 355 kts 358°
2026-04-25 00:54 34.04095 -118.67536 12424 ft 364 kts 360°
2026-04-25 00:55 34.06613 -118.67329 13245 ft 370 kts 360°
2026-04-25 00:55 34.09203 -118.66895 14025 ft 379 kts
2026-04-25 00:55 34.11817 -118.66281 14770 ft 385 kts
2026-04-25 00:55 34.13568 -118.65852 15255 ft 390 kts
2026-04-25 00:56 34.16261 -118.65200 15948 ft 396 kts
2026-04-25 00:56 34.19867 -118.64336 17014 ft 401 kts
2026-04-25 00:56 34.21722 -118.63896 17529 ft 404 kts
2026-04-25 00:56 34.24473 -118.63516 18237 ft 400 kts 353°
2026-04-25 00:57 34.27228 -118.63867 18841 ft 396 kts 343°
2026-04-25 00:57 34.29943 -118.64474 19555 ft 397 kts 342°
2026-04-25 00:57 34.32676 -118.65108 20258 ft 400 kts 341°
2026-04-25 00:57 34.35388 -118.65739 20945 ft 404 kts 341°
2026-04-25 00:58 34.38166 -118.66382 21615 ft 408 kts 341°
2026-04-25 00:58 34.40968 -118.67029 22420 ft 410 kts 341°
2026-04-25 00:58 34.43781 -118.67672 23201 ft 412 kts 341°
2026-04-25 00:58 34.46639 -118.68252 23806 ft 419 kts 342°
2026-04-25 00:59 34.49548 -118.68801 24374 ft 424 kts 342°
2026-04-25 00:59 34.52444 -118.69350 24951 ft 427 kts 342°
2026-04-25 00:59 34.55402 -118.69917 25531 ft 431 kts 342°
2026-04-25 00:59 34.58390 -118.70495 26092 ft 435 kts 342°
2026-04-25 01:00 34.61362 -118.71074 26711 ft 439 kts 342°
2026-04-25 01:00 34.64396 -118.71665 27321 ft 442 kts 342°
2026-04-25 01:00 34.67455 -118.72264 27882 ft 445 kts 342°
2026-04-25 01:00 34.70500 -118.73006 28413 ft 443 kts 336°
2026-04-25 01:01 34.73357 -118.74231 28911 ft 437 kts 327°
2026-04-25 01:01 34.76048 -118.75918 29482 ft 435 kts 322°
2026-04-25 01:01 34.78696 -118.77726 30009 ft 437 kts 322°
2026-04-25 01:01 34.81364 -118.79568 30450 ft 441 kts 322°
2026-04-25 01:02 34.84039 -118.81414 30838 ft 445 kts 322°
2026-04-25 01:02 34.86749 -118.83283 31228 ft 448 kts 321°
2026-04-25 01:02 34.89449 -118.85143 31629 ft 452 kts 321°
2026-04-25 01:02 34.92204 -118.87042 31953 ft 456 kts 321°
2026-04-25 01:03 34.94979 -118.88955 32349 ft 458 kts 321°
2026-04-25 01:03 34.97730 -118.90850 32713 ft 461 kts 321°
2026-04-25 01:03 35.00540 -118.92788 33067 ft 464 kts 321°
2026-04-25 01:03 35.03353 -118.94728 33544 ft 463 kts 320°
2026-04-25 01:04 35.06159 -118.96662 34048 ft 461 kts 320°
2026-04-25 01:04 35.08926 -118.98573 34494 ft 459 kts 320°
2026-04-25 01:04 35.11704 -119.00493 34948 ft 457 kts 320°
2026-04-25 01:04 35.14469 -119.02408 35379 ft 455 kts 320°
2026-04-25 01:05 35.17222 -119.04316 35767 ft 454 kts 320°
2026-04-25 01:05 35.19943 -119.06205 36182 ft 453 kts 321°
2026-04-25 01:05 35.22684 -119.08108 36572 ft 452 kts 321°
2026-04-25 01:05 35.25422 -119.10011 36932 ft 451 kts 321°
2026-04-25 01:06 35.28155 -119.11911 37292 ft 451 kts 321°
2026-04-25 01:06 35.30882 -119.13809 37646 ft 450 kts 321°
2026-04-25 01:06 35.33606 -119.15706 37990 ft 449 kts 321°
2026-04-25 01:06 35.36288 -119.17576 38345 ft 448 kts 321°
2026-04-25 01:07 35.39001 -119.19468 38665 ft 447 kts 322°
2026-04-25 01:07 35.41716 -119.21361 38864 ft 449 kts 322°
2026-04-25 01:07 35.44547 -119.23078 39035 ft 457 kts 329°
2026-04-25 01:07 35.47567 -119.24342 39240 ft 466 kts 335°
2026-04-25 01:08 35.50719 -119.25386 39415 ft 469 kts 336°
2026-04-25 01:08 35.53880 -119.26345 39579 ft 472 kts 337°
2026-04-25 01:08 35.57083 -119.27279 39777 ft 473 kts 338°
2026-04-25 01:09 35.63508 -119.29140 39870 ft 472 kts 338°
2026-04-25 01:09 35.69901 -119.31026 39872 ft 472 kts 338°
2026-04-25 01:10 35.76276 -119.32934 39869 ft 472 kts 338°
2026-04-25 01:10 35.82648 -119.34853 39873 ft 473 kts 338°
2026-04-25 01:11 35.89054 -119.36784 39881 ft 473 kts 338°
2026-04-25 01:11 35.95457 -119.38715 39888 ft 473 kts 338°
2026-04-25 01:12 36.01834 -119.40642 39883 ft 474 kts 338°
2026-04-25 01:12 36.08263 -119.42588 39887 ft 475 kts 338°
2026-04-25 01:13 36.14689 -119.44535 39888 ft 475 kts 338°
2026-04-25 01:13 36.21083 -119.46476 39893 ft 475 kts 338°
2026-04-25 01:14 36.27520 -119.48434 39888 ft 475 kts 338°
2026-04-25 01:14 36.33929 -119.50387 39887 ft 476 kts 338°
2026-04-25 01:15 36.40359 -119.52349 39892 ft 476 kts 339°
2026-04-25 01:15 36.46769 -119.54309 39877 ft 476 kts 339°
2026-04-25 01:16 36.53214 -119.56281 39884 ft 476 kts 339°
2026-04-25 01:16 36.59622 -119.58248 39899 ft 476 kts 339°
2026-04-25 01:17 36.66028 -119.60217 39889 ft 476 kts 339°
2026-04-25 01:17 36.72471 -119.62200 39887 ft 476 kts 339°
2026-04-25 01:18 36.78882 -119.64176 39889 ft 476 kts 339°
2026-04-25 01:18 36.85322 -119.66165 39887 ft 476 kts 339°
2026-04-25 01:19 36.91732 -119.68149 39887 ft 476 kts 339°
2026-04-25 01:19 36.98180 -119.70148 39905 ft 476 kts 339°
2026-04-25 01:20 37.04600 -119.72142 39887 ft 477 kts 339°
2026-04-25 01:20 37.11042 -119.74145 39894 ft 477 kts 339°
2026-04-25 01:21 37.17495 -119.76156 39908 ft 477 kts 339°
2026-04-25 01:21 37.23901 -119.78156 39899 ft 477 kts 339°
2026-04-25 01:22 37.30376 -119.80181 39902 ft 477 kts 339°
2026-04-25 01:22 37.36786 -119.82188 39928 ft 477 kts 340°
2026-04-25 01:23 37.43240 -119.84213 39907 ft 478 kts 340°
2026-04-25 01:23 37.49703 -119.86244 39910 ft 478 kts 340°
2026-04-25 01:24 37.56163 -119.88278 39933 ft 478 kts 340°
2026-04-25 01:24 37.62599 -119.90308 39922 ft 478 kts 340°
2026-04-25 01:25 37.69059 -119.92350 39921 ft 478 kts 340°
2026-04-25 01:25 37.75469 -119.94389 39941 ft 478 kts 340°
2026-04-25 01:26 37.81938 -119.96438 39925 ft 478 kts 340°
2026-04-25 01:26 37.88395 -119.98485 39930 ft 478 kts 340°
2026-04-25 01:27 37.94829 -120.00530 39942 ft 478 kts 340°
2026-04-25 01:27 38.01262 -120.02586 39931 ft 477 kts 340°
2026-04-25 01:28 38.10910 -120.05667 39932 ft 477 kts 340°
2026-04-25 01:28 38.17372 -120.07736 39933 ft 477 kts 340°
2026-04-25 01:29 38.23852 -120.09537 39936 ft 483 kts 348°
2026-04-25 01:29 38.30558 -120.10280 39939 ft 485 kts 350°
2026-04-25 01:30 38.37306 -120.10910 39940 ft 485 kts 350°
2026-04-25 01:30 38.44010 -120.11523 39937 ft 484 kts 350°
2026-04-25 01:31 38.50755 -120.12138 39942 ft 485 kts 350°
2026-04-25 01:31 38.57483 -120.12754 39931 ft 484 kts 351°
2026-04-25 01:32 38.64181 -120.13368 39945 ft 484 kts 351°
2026-04-25 01:32 38.70906 -120.13984 39945 ft 484 kts 350°
2026-04-25 01:33 38.77601 -120.14599 39945 ft 484 kts 350°
2026-04-25 01:33 38.84329 -120.15218 39942 ft 484 kts 350°
2026-04-25 01:34 38.91062 -120.15840 39946 ft 484 kts 350°
2026-04-25 01:34 38.97762 -120.16457 39943 ft 483 kts 350°
2026-04-25 01:35 39.04449 -120.17074 39948 ft 484 kts 350°
2026-04-25 01:35 39.11168 -120.17696 39983 ft 484 kts 351°
2026-04-25 01:36 39.17892 -120.18323 39979 ft 483 kts 351°
2026-04-25 01:36 39.24573 -120.18946 39990 ft 483 kts 351°
2026-04-25 01:37 39.31289 -120.19573 39997 ft 483 kts 351°
2026-04-25 01:37 39.37971 -120.20197 39909 ft 483 kts 351°
2026-04-25 01:38 39.44666 -120.20824 39908 ft 483 kts 351°
2026-04-25 01:38 39.51349 -120.21451 39910 ft 483 kts 351°
2026-04-25 01:39 39.58060 -120.22082 39901 ft 483 kts 351°
2026-04-25 01:39 39.64776 -120.22717 39897 ft 483 kts 351°
2026-04-25 01:40 39.71432 -120.23343 39893 ft 482 kts 351°
2026-04-25 01:40 39.78151 -120.23977 39878 ft 482 kts 351°
2026-04-25 01:41 39.84816 -120.24609 39871 ft 482 kts 351°
2026-04-25 01:41 39.91526 -120.25245 39866 ft 481 kts 351°
2026-04-25 01:42 39.98180 -120.25876 39870 ft 481 kts 351°
2026-04-25 01:42 40.04876 -120.26515 39866 ft 482 kts 351°
2026-04-25 01:43 40.11530 -120.27150 39859 ft 481 kts 351°
2026-04-25 01:43 40.18212 -120.27790 39866 ft 480 kts 351°
2026-04-25 01:44 40.24855 -120.28427 39879 ft 480 kts 351°
2026-04-25 01:44 40.30443 -120.28963 39882 ft 480 kts 351°
2026-04-25 01:45 40.37085 -120.29602 39881 ft 480 kts 351°
2026-04-25 01:45 40.43763 -120.30246 39895 ft 480 kts 351°
2026-04-25 01:46 40.50387 -120.30886 39875 ft 479 kts 351°
2026-04-25 01:46 40.57049 -120.31530 39866 ft 480 kts 351°
2026-04-25 01:47 40.63722 -120.32177 39859 ft 480 kts 351°
2026-04-25 01:47 40.70350 -120.32821 39851 ft 480 kts 351°
2026-04-25 01:48 40.76987 -120.33467 39851 ft 480 kts 351°
2026-04-25 01:48 40.83663 -120.34118 39847 ft 479 kts 351°
2026-04-25 01:49 40.90327 -120.34769 39854 ft 479 kts 351°
2026-04-25 01:49 40.96978 -120.35420 39852 ft 480 kts 351°
2026-04-25 01:50 41.03602 -120.36070 39857 ft 479 kts 351°
2026-04-25 01:50 41.10257 -120.36724 39867 ft 478 kts 351°
2026-04-25 01:51 41.16893 -120.37539 39880 ft 475 kts 346°
2026-04-25 01:51 41.23187 -120.39808 39876 ft 469 kts 338°
2026-04-25 01:52 41.29396 -120.42560 39883 ft 469 kts 338°
2026-04-25 01:52 41.35548 -120.45324 39892 ft 469 kts 338°
2026-04-25 01:53 41.41741 -120.48118 39896 ft 469 kts 338°
2026-04-25 01:53 41.47942 -120.50922 39897 ft 469 kts 338°
2026-04-25 01:54 41.54095 -120.53714 39878 ft 469 kts 338°
2026-04-25 01:54 41.60279 -120.56516 39880 ft 468 kts 338°
2026-04-25 01:55 41.66441 -120.59317 39887 ft 468 kts 338°
2026-04-25 01:55 41.72575 -120.62114 39886 ft 467 kts 338°
2026-04-25 01:56 41.78738 -120.64930 39895 ft 467 kts 338°
2026-04-25 01:56 41.84883 -120.67744 39896 ft 467 kts 338°
2026-04-25 01:57 41.94094 -120.71972 39906 ft 467 kts 338°
2026-04-25 01:58 42.00246 -120.74798 39921 ft 467 kts 338°
2026-04-25 01:58 42.06409 -120.77639 39919 ft 467 kts 338°
2026-04-25 01:59 42.12576 -120.80488 39926 ft 467 kts 338°
2026-04-25 01:59 42.18696 -120.83321 39922 ft 466 kts 338°
2026-04-25 02:00 42.24708 -120.86112 39931 ft 467 kts 338°
2026-04-25 02:00 42.30870 -120.88978 39929 ft 467 kts 338°
2026-04-25 02:01 42.37026 -120.91846 39924 ft 467 kts 338°
2026-04-25 02:01 42.43144 -120.94703 39934 ft 467 kts 338°
2026-04-25 02:02 42.49265 -120.97567 39935 ft 467 kts 338°
2026-04-25 02:02 42.55424 -121.00454 39935 ft 467 kts 338°
2026-04-25 02:03 42.61554 -121.03335 39932 ft 466 kts 338°
2026-04-25 02:03 42.67698 -121.06228 39946 ft 466 kts 338°
2026-04-25 02:04 42.73784 -121.09099 39937 ft 465 kts 338°
2026-04-25 02:04 42.79911 -121.11996 39938 ft 464 kts 338°
2026-04-25 02:05 42.85990 -121.14876 39927 ft 464 kts 338°
2026-04-25 02:05 42.92106 -121.17781 39941 ft 464 kts 338°
2026-04-25 02:06 42.98175 -121.20668 39940 ft 463 kts 338°
2026-04-25 02:06 43.04262 -121.23570 39934 ft 463 kts 338°
2026-04-25 02:07 43.10348 -121.26478 39939 ft 462 kts 338°
2026-04-25 02:07 43.16399 -121.29376 39933 ft 462 kts 338°
2026-04-25 02:08 43.22479 -121.32293 39939 ft 462 kts 338°
2026-04-25 02:08 43.28513 -121.35194 39930 ft 461 kts 338°
2026-04-25 02:09 43.34574 -121.38115 39935 ft 462 kts 338°
2026-04-25 02:09 43.40667 -121.41057 39936 ft 462 kts 338°
2026-04-25 02:10 43.46716 -121.43984 39937 ft 462 kts 338°
2026-04-25 02:10 43.52792 -121.46931 39934 ft 463 kts 338°
2026-04-25 02:11 43.58883 -121.49891 39946 ft 463 kts 338°
2026-04-25 02:11 43.64932 -121.52836 39946 ft 463 kts 338°
2026-04-25 02:12 43.71015 -121.55805 39946 ft 462 kts 338°
2026-04-25 02:12 43.77061 -121.58763 39944 ft 462 kts 338°
2026-04-25 02:13 43.83140 -121.61742 39966 ft 463 kts 338°
2026-04-25 02:13 43.89217 -121.64728 39975 ft 463 kts 338°
2026-04-25 02:14 43.95251 -121.67698 39968 ft 462 kts 338°
2026-04-25 02:14 44.01330 -121.70697 39997 ft 462 kts 338°
2026-04-25 02:15 44.07375 -121.73686 39991 ft 462 kts 338°
2026-04-25 02:15 44.13459 -121.76701 39988 ft 462 kts 338°
2026-04-25 02:16 44.19498 -121.79700 39993 ft 462 kts 338°
2026-04-25 02:16 44.25583 -121.82728 40006 ft 462 kts 338°
2026-04-25 02:17 44.31649 -121.85753 40004 ft 463 kts 338°
2026-04-25 02:17 44.37676 -121.88766 40008 ft 462 kts 338°
2026-04-25 02:18 44.43743 -121.91806 40005 ft 462 kts 338°
2026-04-25 02:18 44.49779 -121.94836 40009 ft 462 kts 338°
2026-04-25 02:19 44.55836 -121.97884 40008 ft 462 kts 338°
2026-04-25 02:19 44.61902 -122.00944 40009 ft 463 kts 338°
2026-04-25 02:20 44.67972 -122.04012 40002 ft 463 kts 338°
2026-04-25 02:20 44.74006 -122.07067 40009 ft 463 kts 338°
2026-04-25 02:21 44.80071 -122.10147 40014 ft 463 kts 338°
2026-04-25 02:21 44.86121 -122.13226 40006 ft 462 kts 338°
2026-04-25 02:22 44.92130 -122.16290 39999 ft 461 kts 338°
2026-04-25 02:22 44.98186 -122.19385 40017 ft 462 kts 338°
2026-04-25 02:23 45.04187 -122.22458 39998 ft 460 kts 339°
2026-04-25 02:23 45.10217 -122.25554 40002 ft 459 kts 338°
2026-04-25 02:24 45.16195 -122.28630 40001 ft 459 kts 338°
2026-04-25 02:24 45.22214 -122.31735 39887 ft 458 kts 339°
2026-04-25 02:24 45.25216 -122.33285 39659 ft 457 kts 339°
2026-04-25 02:25 45.28209 -122.34833 39432 ft 457 kts 338°
2026-04-25 02:25 45.31167 -122.36365 39203 ft 456 kts 338°
2026-04-25 02:25 45.34152 -122.37912 38985 ft 456 kts 338°
2026-04-25 02:25 45.37132 -122.39458 38764 ft 455 kts 338°
2026-04-25 02:26 45.40106 -122.41003 38516 ft 453 kts 338°
2026-04-25 02:26 45.43065 -122.42541 38234 ft 452 kts 338°
2026-04-25 02:26 45.46023 -122.44082 37956 ft 451 kts 338°
2026-04-25 02:26 45.48936 -122.45600 37690 ft 450 kts 338°
2026-04-25 02:27 45.51886 -122.47139 37406 ft 450 kts 338°
2026-04-25 02:27 45.54831 -122.48678 37151 ft 449 kts 338°
2026-04-25 02:27 45.57736 -122.50198 36900 ft 448 kts 339°
2026-04-25 02:27 45.60669 -122.51734 36642 ft 448 kts 339°
2026-04-25 02:28 45.63608 -122.53274 36383 ft 447 kts 339°
2026-04-25 02:28 45.66489 -122.54786 36150 ft 444 kts 339°
2026-04-25 02:28 45.69382 -122.56305 35898 ft 441 kts 339°
2026-04-25 02:28 45.72258 -122.57817 35583 ft 438 kts 339°
2026-04-25 02:29 45.75147 -122.59134 34942 ft 437 kts 345°
2026-04-25 02:29 45.78101 -122.59999 34123 ft 426 kts 348°
2026-04-25 02:29 45.80949 -122.60702 33244 ft 414 kts 348°
2026-04-25 02:29 45.83761 -122.61384 32436 ft 406 kts 348°
2026-04-25 02:30 45.86533 -122.62061 31639 ft 402 kts 348°
2026-04-25 02:30 45.89272 -122.62734 30809 ft 397 kts 348°
2026-04-25 02:30 45.91984 -122.63404 29952 ft 392 kts 348°
2026-04-25 02:30 45.93757 -122.63843 29337 ft 389 kts 348°
2026-04-25 02:31 45.96414 -122.64502 28704 ft 387 kts 348°
2026-04-25 02:31 45.99064 -122.65161 28172 ft 385 kts 348°
2026-04-25 02:31 46.01686 -122.65814 27753 ft 377 kts 349°
2026-04-25 02:31 46.04259 -122.66454 27231 ft 373 kts 349°
2026-04-25 02:32 46.06817 -122.67091 26659 ft 371 kts 349°
2026-04-25 02:32 46.09359 -122.67728 26049 ft 370 kts 349°
2026-04-25 02:32 46.11881 -122.68306 25420 ft 371 kts 351°
2026-04-25 02:32 46.14435 -122.68793 24906 ft 368 kts 351°
2026-04-25 02:33 46.16938 -122.69264 24414 ft 365 kts 351°
2026-04-25 02:33 46.19435 -122.69742 23763 ft 355 kts 351°
2026-04-25 02:33 46.21869 -122.70215 23048 ft 352 kts 351°
2026-04-25 02:33 46.24276 -122.70690 22554 ft 353 kts 351°
2026-04-25 02:34 46.26700 -122.71168 22057 ft 350 kts 351°
2026-04-25 02:34 46.29112 -122.71644 21457 ft 348 kts 351°
2026-04-25 02:34 46.31503 -122.72091 20917 ft 344 kts 353°
2026-04-25 02:34 46.33888 -122.72292 20402 ft 341 kts 357°
2026-04-25 02:35 46.36254 -122.72386 19904 ft 337 kts 357°
2026-04-25 02:35 46.38562 -122.72464 19388 ft 334 kts 357°
2026-04-25 02:35 46.40881 -122.72543 18870 ft 332 kts 357°
2026-04-25 02:35 46.43184 -122.72623 18352 ft 329 kts 357°
2026-04-25 02:36 46.45465 -122.72705 17807 ft 326 kts 358°
2026-04-25 02:36 46.47726 -122.72786 17238 ft 323 kts 358°
2026-04-25 02:36 46.49939 -122.72866 16722 ft 320 kts 358°
2026-04-25 02:36 46.52153 -122.72945 16202 ft 317 kts 358°
2026-04-25 02:37 46.54362 -122.73025 15704 ft 315 kts 358°
2026-04-25 02:37 46.56544 -122.73104 15177 ft 312 kts 359°
2026-04-25 02:37 46.58715 -122.73182 14687 ft 310 kts 359°
2026-04-25 02:37 46.60842 -122.73259 14192 ft 308 kts 359°
2026-04-25 02:38 46.62978 -122.73336 14028 ft 307 kts 359°
2026-04-25 02:38 46.65111 -122.73413 13911 ft 306 kts 359°
2026-04-25 02:38 46.67243 -122.73491 13778 ft 302 kts 359°
2026-04-25 02:38 46.69293 -122.73565 13623 ft 287 kts 359°
2026-04-25 02:39 46.71235 -122.73636 13490 ft 276 kts 359°
2026-04-25 02:39 46.73120 -122.73704 13327 ft 266 kts 359°
2026-04-25 02:39 46.74984 -122.73772 13158 ft 269 kts 359°
2026-04-25 02:39 46.76859 -122.73764 12852 ft 269 kts
2026-04-25 02:40 46.78661 -122.73181 12535 ft 270 kts 20°
2026-04-25 02:40 46.80282 -122.71805 12199 ft 271 kts 34°
2026-04-25 02:40 46.81767 -122.70087 11876 ft 271 kts 37°
2026-04-25 02:40 46.83221 -122.68337 11551 ft 271 kts 37°
2026-04-25 02:41 46.84664 -122.66607 11311 ft 268 kts 37°
2026-04-25 02:41 46.86030 -122.64824 11157 ft 259 kts 41°
2026-04-25 02:41 46.87308 -122.63008 11010 ft 251 kts 42°
2026-04-25 02:41 46.88556 -122.61239 10760 ft 249 kts 42°
2026-04-25 02:42 46.89807 -122.59485 10485 ft 249 kts 42°
2026-04-25 02:42 46.91046 -122.57760 10210 ft 247 kts 42°
2026-04-25 02:42 46.92256 -122.55995 10035 ft 240 kts 45°
2026-04-25 02:42 46.93394 -122.54249 9905 ft 233 kts 45°
2026-04-25 02:43 46.94537 -122.52498 9750 ft 243 kts 45°
2026-04-25 02:43 46.95711 -122.50710 9524 ft 243 kts 44°
2026-04-25 02:43 46.96881 -122.48934 9249 ft 242 kts 45°
2026-04-25 02:43 46.98060 -122.47230 9000 ft 240 kts 39°
2026-04-25 02:44 46.99442 -122.45832 8849 ft 241 kts 31°
2026-04-25 02:44 47.00886 -122.44596 8512 ft 239 kts 30°
2026-04-25 02:44 47.02331 -122.43388 8170 ft 238 kts 30°
2026-04-25 02:44 47.03754 -122.42196 7916 ft 238 kts 30°
2026-04-25 02:45 47.05189 -122.40989 7654 ft 236 kts 30°
2026-04-25 02:45 47.06600 -122.39799 7388 ft 231 kts 31°
2026-04-25 02:45 47.07982 -122.38632 7121 ft 227 kts 31°
2026-04-25 02:45 47.09344 -122.37480 6862 ft 224 kts 31°
2026-04-25 02:46 47.10697 -122.36333 6599 ft 224 kts 31°
2026-04-25 02:46 47.12043 -122.35232 6339 ft 224 kts 27°
2026-04-25 02:46 47.13512 -122.34459 6072 ft 224 kts 17°
2026-04-25 02:46 47.15019 -122.33877 5809 ft 223 kts 16°
2026-04-25 02:47 47.16529 -122.33320 5567 ft 223 kts 16°
2026-04-25 02:47 47.18002 -122.32779 5359 ft 218 kts 16°
2026-04-25 02:47 47.19467 -122.32285 5106 ft 214 kts 12°
2026-04-25 02:47 47.20941 -122.32083 4938 ft 211 kts
2026-04-25 02:48 47.22404 -122.32042 4685 ft 208 kts
2026-04-25 02:48 47.23844 -122.31985 4399 ft 205 kts
2026-04-25 02:48 47.25240 -122.31965 4111 ft 199 kts
2026-04-25 02:48 47.26621 -122.31956 3859 ft 195 kts
2026-04-25 02:49 47.27965 -122.31940 3608 ft 190 kts
2026-04-25 02:49 47.29279 -122.31928 3339 ft 186 kts
2026-04-25 02:49 47.30559 -122.31917 3074 ft 182 kts
2026-04-25 02:49 47.31795 -122.31907 2830 ft 178 kts
2026-04-25 02:50 47.33014 -122.31897 2595 ft 171 kts
2026-04-25 02:50 47.34192 -122.31886 2375 ft 167 kts
2026-04-25 02:50 47.35334 -122.31876 2143 ft 159 kts
2026-04-25 02:50 47.36395 -122.31868 1929 ft 149 kts
2026-04-25 02:51 47.37402 -122.31860 1733 ft 139 kts 360°
2026-04-25 02:51 47.38329 -122.31852 1545 ft 127 kts
2026-04-25 02:51 47.39185 -122.31844 1383 ft 120 kts 359°
2026-04-25 02:51 47.40003 -122.31839 1215 ft 118 kts
2026-04-25 02:52 47.40832 -122.31833 1049 ft 120 kts
2026-04-25 02:52 47.41673 -122.31824 854 ft 123 kts
2026-04-25 02:52 47.42522 -122.31824 688 ft 120 kts
2026-04-25 02:52 47.43364 -122.31807 548 ft 123 kts 360°
2026-04-25 02:53 47.44206 -122.31806 390 ft 120 kts 359°
2026-04-25 02:53 47.44927 -122.31800 397 ft 83 kts 360°
2026-04-25 02:53 47.45349 -122.31798 404 ft 38 kts
2026-04-25 02:53 47.45579 -122.31797 409 ft 30 kts
2026-04-25 02:54 47.45772 -122.31764 412 ft 25 kts 13°
2026-04-25 02:54 47.45921 -122.31667 410 ft 21 kts 36°
2026-04-25 02:54 47.45998 -122.31514 419 ft 18 kts 69°
2026-04-25 02:54 47.46012 -122.31374 430 ft 8 kts 103°
2026-04-25 02:55 47.45966 -122.31347 421 ft 9 kts 180°
2026-04-25 02:55 47.45879 -122.31348 420 ft 16 kts 180°
2026-04-25 02:55 47.45747 -122.31349 419 ft 22 kts 180°
2026-04-25 02:55 47.45576 -122.31350 410 ft 28 kts 180°
2026-04-25 02:56 47.45370 -122.31352 411 ft 27 kts 180°
2026-04-25 02:56 47.45205 -122.31353 406 ft 20 kts 180°
2026-04-25 02:56 47.45049 -122.31355 405 ft 24 kts 180°
2026-04-25 02:56 47.44880 -122.31356 400 ft 23 kts 180°
2026-04-25 02:57 47.44707 -122.31358 394 ft 26 kts 180°
2026-04-25 02:57 47.44523 -122.31359 393 ft 26 kts 180°
2026-04-25 02:57 47.44330 -122.31361 388 ft 27 kts 180°
2026-04-25 02:57 47.44144 -122.31363 383 ft 29 kts 181°
2026-04-25 02:58 47.43957 -122.31367 377 ft 20 kts 181°
2026-04-25 02:58 47.43867 -122.31368 375 ft 11 kts 179°
2026-04-25 02:58 47.43813 -122.31288 377 ft 13 kts 103°
2026-04-25 02:58 47.43808 -122.31146 378 ft 16 kts 90°
2026-04-25 02:59 47.43807 -122.30970 379 ft 18 kts 90°
2026-04-25 02:59 47.43807 -122.30798 383 ft 15 kts 90°
2026-04-25 02:59 47.43794 -122.30658 383 ft 12 kts 123°
2026-04-25 02:59 47.43734 -122.30548 385 ft 15 kts 116°
2026-04-25 03:00 47.43720 -122.30395 387 ft 15 kts 90°
2026-04-25 03:00 47.43738 -122.30231 388 ft 16 kts 77°
2026-04-25 03:00 47.43757 -122.30104 389 ft 12 kts 78°
2026-04-25 03:00 47.43777 -122.30003 391 ft 8 kts 63°
2026-04-25 03:01 47.43807 -122.29966 392 ft 5 kts 39°
2026-04-25 03:01 47.43823 -122.29916 400 ft 6 kts 69°
2026-04-25 03:01 47.43834 -122.29870 390 ft 2 kts 71°
2026-04-25 03:01 47.43835 -122.29867 391 ft 0 kts 71°